ANIK F3

Last updated on Tue Sep 15 2026 00:03:08 GMT+0000 (Coordinated Universal Time)

1 31102U 07009A 26257.55165745 -.00000009 00000+0 00000+0 0 9991 2 31102 1.4226 82.6402 0002591 88.8078 261.9772 1.00273113 47454
UTC large
Height (km)
Speed (km/s)
/
Latitude / Longitude
Inclination (degrees)
Orbital Period (minutes)
Azimuth
Elevation
Range (km)
Doppler Factor

Next 0 passes for location: London (51.5072 / 0.1276)

No passes found over London.
ANIK F3